Regional Weather Roundup
Issued by NWS

Home | Current Version | Previous Version | Text Only | Print | Product List | Glossary On
Versions: 1 2 3 4 5 6 7 8 9 10 11 12 13 14 15 16 17 18 19 20 21 22 23 24 25 26 27 28 29 30 31 32 33 34 35 36 37 38 39 40 41 42 43 44 45 46 47 48 49 50
000
ASUS43 KDTX 180410
RWRMI
MICHIGAN HOURLY REGIONAL WEATHER ROUNDUP
NATIONAL WEATHER SERVICE DETROIT/PONTIAC MI
1200 AM EDT FRI APR 18 2014

NOTE: "FAIR" INDICATES FEW OR NO CLOUDS BELOW 12,000 FEET WITH NO
SIGNIFICANT WEATHER AND/OR OBSTRUCTION TO VISIBILITY.

MIZ047>049-052>055-059>063-066>070-074>076-081>083-180500-
SOUTHEAST LOWER MICHIGAN

CITY           SKY/WX    TMP DP  RH WIND       PRES   REMARKS
ADRIAN         MOCLDY    51  33  50 S3        30.25F
ALMA           CLOUDY    47  38  69 W3        30.24S
ANN ARBOR      MOCLDY    52  33  48 CALM      30.24F
BAD AXE        CLOUDY    50  36  58 S8        30.24R
CARO           CLOUDY    51  38  61 W5        30.22F
DETROIT CITY   MOCLDY    50  35  56 SE5       30.26F
DETROIT        MOCLDY    51  39  63 SE3       30.25F
FLINT          CLOUDY    53  35  50 CALM      30.24S
GROSSE ILE     MOCLDY    46  39  76 S5        30.24F
HILLSDALE      CLOUDY    56  33  43 S5        30.24S
HOWELL         CLOUDY    52  33  48 CALM      30.23F

CITY           SKY/WX    TMP DP  RH WIND       PRES   REMARKS
JACKSON        MOCLDY    53  34  48 CALM      30.24S
LAMBERTVILLE   PTCLDY    52  36  54 CALM      30.25F
LANSING        MOCLDY    50  36  58 CALM      30.24F
LAPEER         FAIR      49  36  61 NW3       30.24S
MASON          PTCLDY    48  37  65 CALM      30.24S
MONROE         PTCLDY    52  37  58 CALM      30.23F
MT. CLEMENS    MOCLDY    43  37  79 SE6       30.25F
PONTIAC        CLOUDY    52  35  52 SE5       30.24F
PORT HOPE        N/A     50  36  58 CALM      30.22R
PORT HURON     CLOUDY    46  32  57 S8        30.27S
TRI CITIES     CLOUDY    51  38  60 W8        30.24R
TROY           MOCLDY    52  35  52 CALM      30.26F
SAGINAW HB     CLOUDY    52  36  54 W3        30.23S
YPSILANTI      MOCLDY    56  35  45 S7        30.24F
$$
MIZ043>046-050>051-056>058-064>065-071>073-077>080-180500-
SOUTHWEST LOWER MICHIGAN

CITY           SKY/WX    TMP DP  RH WIND       PRES   REMARKS
BATTLE CREEK   MOCLDY    50  37  61 CALM      30.24F
BENTON HARBOR  CLOUDY    47  37  68 NE3       30.24F
BIG RAPIDS     CLOUDY    44  36  72 NW5       30.22F
COLDWATER      CLOUDY    51  35  54 CALM      30.24S
FREMONT        FAIR      42  37  83 NW5       30.23F
HOLLAND        CLOUDY    45  38  76 CALM      30.25F
GRAND RAPIDS   CLOUDY    49  37  63 W3        30.24F
IONIA          MOCLDY    50  37  62 NW6       30.24S
KALAMAZOO      MOCLDY    50  37  61 CALM      30.24S
LUDINGTON      CLOUDY    37  35  92 CALM      30.25S
MARSHALL       MOCLDY    47  35  64 CALM      30.23S
MOUNT PLEASANT CLOUDY    48  38  66 CALM      30.23S
MUSKEGON       CLOUDY    44  36  73 SE3       30.24F
SOUTH HAVEN    CLOUDY    46  37  68 CALM      30.25S
$$
MIZ016>042-180500-
NORTHERN LOWER MICHIGAN

CITY           SKY/WX    TMP DP  RH WIND       PRES   REMARKS
ALPENA         CLOUDY    38  32  79 CALM      30.22R
BEAVER ISLAND  MOCLDY    32  30  93 SW3       30.24S
BELLAIRE       CLOUDY    36  31  85 CALM      30.25S
CADILLAC       CLOUDY    39  35  86 CALM      30.22R
CHARLEVOIX     CLOUDY    36  32  85 NW5       30.27S WCI  32
FRANKFORT      CLOUDY    38  33  83 CALM      30.25S
GAYLORD        CLOUDY    36  31  82 W6        30.21S WCI  31
GRAYLING       CLOUDY    37  31  78 W3        30.23S
HARBOR SPRINGS CLOUDY    33  31  92 CALM      30.23F
HOUGHTON LAKE  CLOUDY    39  35  86 CALM      30.22S
MANISTEE       CLOUDY    37  34  87 NE3       30.25S
OSCODA         MOCLDY    41  33  73 NW6       30.21R
PELLSTON       MOCLDY    36  29  75 W7        30.24R WCI  30
ROGERS CITY    CLOUDY    32  31  94 CALM      30.22S
TRAVERSE CITY  CLOUDY    37  32  82 CALM      30.24F
$$
MIZ007>008-015-180500-
EASTERN UPPER MICHIGAN

CITY           SKY/WX    TMP DP  RH WIND       PRES   REMARKS
KINROSS        PTCLDY    34  30  86 SW3       30.21S
MACKINAC ISLAN MOCLDY    34  31  90 SW6       30.22S WCI  28
NEWBERRY       CLEAR     27  26  97 SW3       30.21S
S. S. MARIE    PTCLDY    36  26  67 CALM      30.21S
MUNISING         N/A     39  31  72 NW7       30.24R WCI  34
$$
MIZ004>006-011>014-085-180500-
CENTRAL UPPER MICHIGAN

CITY           SKY/WX    TMP DP  RH WIND       PRES   REMARKS
MANISTIQUE     CLOUDY    36  32  84 W3        30.23S
ESCANABA       CLOUDY    37  32  81 NW9G16    30.25S WCI  31
MENOMINEE      CLOUDY    37  32  81 CALM      30.26R
SAWYER-GWINN   MOCLDY    33  30  89 W8        30.24R WCI  26
$$
MIZ001>003-009>011-084-180500-
WESTERN UPPER MICHIGAN

CITY           SKY/WX    TMP DP  RH WIND       PRES   REMARKS
IRON MOUNTAIN  CLOUDY    34  26  72 NW6       30.25R WCI  29
HOUGHTON       CLOUDY    30  26  85 W15       30.23R WCI  19
COPPER HARBOR    N/A     33  31  92 VRB3      30.22F
IRONWOOD       CLOUDY    32  25  74 W5        30.25S WCI  27
$$

ABBREVIATIONS USED IN REMARKS
   TC - TEMPERATURE IN CELSIUS
  WCI - WIND CHILL INDEX
   HX - HEAT INDEX
  VSB - VISIBILITY




USA.gov is the U.S. government's official web portal to all federal, state and local government web resources and services.